"Time","Temp","Dewpoint","Humidity","Pressure","Direction","Speed","Gust","Precip","PrecipRate"
"00:04:59","39.8","27","60","29.76","300","6.2","18.4","0.00","0.00"
"00:09:56","39.7","26.9","60","29.76","286","7","16.1","0.00","0.00"
"00:14:59","39.7","26.9","60","29.76","286","7.7","18.4","0.00","0.00"
"00:19:57","39.8","27","60","29.76","296","6.7","23","0.00","0.00"
"00:24:59","39.7","26.9","60.1","29.76","279","5.9","13.8","0.00","0.00"
"00:29:56","39.5","27.2","61","29.76","306","5.3","17","0.00","0.00"
"00:34:58","39.4","27.1","61","29.75","295","6.9","17.3","0.00","0.00"
"00:39:56","39.5","27.2","61","29.75","269","7.6","18.4","0.00","0.00"
"00:44:58","39.5","27.2","61","29.76","294","7.4","18.4","0.00","0.00"
"00:49:56","39.5","27.2","61","29.76","286","6.5","18.4","0.00","0.00"
"00:54:57","39.4","27.2","61.3","29.76","285","6.7","19","0.00","0.00"
"00:59:59","39.3","27.1","61.2","29.76","268","5.7","19.6","0.00","0.00"
"01:04:56","39.3","27.1","61.4","29.75","238","2.9","11.5","0.00","0.00"
"01:09:58","39.1","27.2","62","29.75","283","3.5","16.1","0.00","0.00"
"01:14:56","39","27.1","62","29.76","294","4","10.4","0.00","0.00"
"01:19:58","39","27.1","62","29.76","325","4.6","14","0.00","0.00"
"01:24:56","39","27.1","62","29.76","246","2.6","11.5","0.00","0.00"
"01:29:58","39","27.3","62.5","29.76","242","4.9","10","0.00","0.00"
"01:34:56","38.9","27.2","62.6","29.76","260","5.1","13","0.00","0.00"
"01:39:58","39","27.2","62.2","29.76","321","5.6","16.1","0.00","0.00"
"01:44:56","39","27.4","62.7","29.77","269","3.9","13.8","0.00","0.00"
"01:49:58","38.9","27.4","63.2","29.77","262","3.5","10.4","0.00","0.00"
"01:54:56","38.9","27.5","63.3","29.77","276","3.8","12","0.00","0.00"
"01:59:57","38.8","27.7","64","29.78","262","3.8","10","0.00","0.00"
"02:04:59","38.8","27.7","64","29.78","289","3.6","10.4","0.00","0.00"
"02:09:57","38.8","27.7","64","29.78","264","3.4","7","0.00","0.00"
"02:14:59","38.7","27.8","64.6","29.78","231","3.1","11","0.00","0.00"
"02:19:57","38.5","27.7","64.9","29.78","285","3.3","11.5","0.00","0.00"
"02:24:59","38.5","27.6","64.7","29.78","270","3.4","8.1","0.00","0.00"
"02:29:57","38.4","27.3","64","29.78","323","3","6.9","0.00","0.00"
"02:34:59","38.3","27.4","64.5","29.78","289","2.4","5","0.00","0.00"
"02:39:57","38.1","27.3","64.8","29.78","301","2.1","14","0.00","0.00"
"02:44:59","37.9","27.2","65","29.78","302","2.8","12","0.00","0.00"
"02:49:57","37.8","27.2","65.4","29.77","326","4","13","0.00","0.00"
"02:54:59","37.7","27.4","65.9","29.77","297","2.7","9","0.00","0.00"
"02:59:56","37.7","27.4","66","29.77","306","5.8","11.5","0.00","0.00"
"03:04:58","37.7","27.4","66","29.76","311","5.2","13","0.00","0.00"
"03:09:59","37.8","27.5","66","29.76","305","4.6","11.5","0.00","0.00"
"03:14:58","37.8","27.5","66","29.76","326","5.9","13","0.00","0.00"
"03:19:56","37.8","27.5","66","29.76","277","2.5","9","0.00","0.00"
"03:24:58","37.7","27.4","66","29.76","286","2.3","9.2","0.00","0.00"
"03:29:56","37.6","27.3","66","29.76","312","2.1","6","0.00","0.00"
"03:34:58","37.4","27.2","66.3","29.76","337","1.1","12","0.00","0.00"
"03:39:56","37.3","27.3","67","29.76","320","3.4","11.5","0.00","0.00"
"03:44:58","37.3","27.3","67","29.76","233","2.9","10","0.00","0.00"
"03:49:56","37.3","27.3","67","29.76","302","3.7","10.4","0.00","0.00"
"03:54:57","37.3","27.3","67","29.76","320","4.7","10.4","0.00","0.00"
"03:59:59","37.3","27.3","67","29.76","309","4","12","0.00","0.00"
"04:04:57","37.3","27.3","67","29.75","320","2.6","11.5","0.00","0.00"
"04:09:59","37.1","27.4","67.5","29.75","258","1.6","5","0.00","0.00"
"04:14:58","37.1","27.3","67.5","29.76","273","2.3","5","0.00","0.00"
"04:19:55","37.1","27.5","67.9","29.76","329","2.2","10","0.00","0.00"
"04:24:57","37.1","27.5","68","29.76","330","2.9","10.4","0.00","0.00"
"04:29:59","37.1","27.5","68","29.76","317","2.4","6","0.00","0.00"
"04:34:57","37.1","27.5","68","29.76","338","1.2","5.8","0.00","0.00"
"04:39:56","37.1","27.6","68.1","29.76","182","1.9","6","0.00","0.00"
"04:44:57","37.2","27.6","68","29.76","269","1.9","5","0.00","0.00"
"04:49:55","37.4","27.4","67","29.76","282","2.7","6","0.00","0.00"
"04:54:58","37.5","27.5","66.8","29.76","329","2.9","6","0.00","0.00"
"04:59:59","37.6","27.5","66.6","29.76","331","3.9","10.4","0.00","0.00"
"05:04:56","37.7","27.5","66.2","29.76","318","4.3","9.2","0.00","0.00"
"05:09:58","37.8","27.5","66.1","29.76","322","5.1","10.4","0.00","0.00"
"05:14:56","37.9","27.3","65.3","29.76","315","5.5","10","0.00","0.00"
"05:19:58","37.9","27.5","65.9","29.76","317","6.5","16.1","0.00","0.00"
"05:24:56","37.9","27.4","65.8","29.76","323","5","11.5","0.00","0.00"
"05:29:58","37.9","27.4","65.6","29.76","304","5.5","12","0.00","0.00"
"05:34:56","37.9","27.3","65.2","29.76","319","4.8","14","0.00","0.00"
"05:39:58","37.9","27.3","65.4","29.76","323","4.4","11","0.00","0.00"
"05:44:56","37.9","27.4","65.7","29.78","311","5","13","0.00","0.00"
"05:49:58","37.9","27.4","65.5","29.78","295","4","14","0.00","0.00"
"05:54:56","37.9","27.5","66","29.78","149","2.5","8.1","0.00","0.00"
"05:59:58","37.9","27.6","66.3","29.79","242","2.4","8.1","0.00","0.00"
"06:04:59","37.9","27.6","66.3","29.79","282","1.5","7","0.00","0.00"
"06:09:58","37.9","27.6","66.2","29.79","295","2.8","6","0.00","0.00"
"06:14:56","38","27.6","66","29.80","286","3.1","9","0.00","0.00"
"06:19:58","38","27.7","66.3","29.80","284","2.9","9.2","0.00","0.00"
"06:24:56","38","27.6","66","29.80","272","2.9","6","0.00","0.00"
"06:29:57","38.1","27.3","64.9","29.81","266","3.3","10.4","0.00","0.00"
"06:34:59","38.1","27.5","65.2","29.81","251","3","10","0.00","0.00"
"06:39:58","38.2","26.8","63.3","29.81","261","4.1","10.4","0.00","0.00"
"06:44:56","38.2","26.4","62.1","29.81","285","3.6","11.5","0.00","0.00"
"06:49:58","38.3","26.1","61.4","29.81","274","3.2","10.4","0.00","0.00"
"06:54:56","38.3","26","61","29.81","294","3","8","0.00","0.00"
"06:59:58","38.3","25.9","60.8","29.81","269","3.8","11.5","0.00","0.00"
"07:04:59","38.3","25.7","60.4","29.81","310","3.9","12","0.00","0.00"
"07:09:57","38.3","25.6","60.1","29.81","290","4.6","13","0.00","0.00"
"07:14:56","38.2","25.5","60","29.82","304","4.2","14","0.00","0.00"
"07:19:58","38.1","25.7","60.6","29.82","315","3.5","13.8","0.00","0.00"
"07:24:56","38","25.7","61","29.82","317","3.5","6.9","0.00","0.00"
"07:29:58","37.9","25.6","61","29.82","296","2.2","6","0.00","0.00"
"07:34:56","37.9","25.6","61","29.82","319","2.8","6","0.00","0.00"
"07:39:58","37.9","25.6","61","29.82","316","2.3","5.8","0.00","0.00"
"07:44:59","37.9","25.7","61.2","29.82","326","2.3","6","0.00","0.00"
"07:49:57","38","25.9","61.5","29.82","267","2.1","6","0.00","0.00"
"07:54:59","38.3","25.6","59.9","29.82","274","3.4","9.2","0.00","0.00"
"07:59:57","38.5","25.5","59.3","29.82","287","3.8","9.2","0.00","0.00"
"08:04:58","38.5","25.5","59.3","29.82","273","4.5","13","0.00","0.00"
"08:09:56","38.4","25.3","59","29.82","275","4.5","12","0.00","0.00"
"08:14:58","38.3","25.1","58.7","29.83","310","4.4","15","0.00","0.00"
"08:19:59","38.2","24.7","58","29.83","284","6.6","15","0.00","0.00"
"08:24:57","38.3","24.7","57.8","29.83","274","4.5","11.5","0.00","0.00"
"08:29:58","38.8","24.5","56.3","29.83","273","4.3","13","0.00","0.00"
"08:34:56","38.9","24.3","55.4","29.83","331","7.8","18","0.00","0.00"
"08:39:58","38.9","24.4","55.7","29.83","323","7","18.4","0.00","0.00"
"08:44:59","38.8","24.2","55.3","29.83","277","5.4","14","0.00","0.00"
"08:49:57","38.8","24.1","55.2","29.82","272","5","12","0.00","0.00"
"08:54:58","38.7","24","55.4","29.82","277","5.7","15","0.00","0.00"
"08:59:59","38.7","24.1","55.6","29.83","258","4","9","0.00","0.00"
"09:04:56","38.7","24","55.4","29.83","276","6.1","16.1","0.00","0.00"
"09:09:58","38.8","24.6","56.5","29.83","287","4.4","15","0.00","0.00"
"09:14:56","39.1","25.3","57.5","29.83","299","4.5","18.4","0.00","0.00"
